Wind_Speed
17 17 17 17 18 18 19 18 17 17 17 17 17 16 16 16 17 17 17 17 17 17 17 17 17 17 17 17 18 18 18 19 19 20 20 21 21 22 23 24 24 24 24
17 17 17 17 18 18 19 19 18 17 17 17 16 16 17 17 17 17 17 17 17 17 16 17 18 18 17 17 18 18 19 19 20 20 20 21 21 22 22 23 24 24 24
16 17 17 17 18 19 19 19 18 18 17 16 16 17 17 17 17 18 18 17 17 17 17 17 17 18 18 19 19 19 20 20 20 20 20 21 22 23 23 23 24 24 24
17 17 17 17 18 18 19 19 19 18 17 17 18 18 18 18 18 18 18 18 18 18 18 19 19 19 20 20 20 20 21 21 21 21 21 22 23 24 24 24 24 25 25
17 17 17 17 18 18 19 19 18 18 18 18 18 19 18 18 18 18 18 18 19 19 19 19 20 20 21 21 21 21 22 22 22 22 22 22 22 23 24 24 25 25 25
18 18 18 18 19 19 19 19 18 18 18 18 18 18 19 19 18 18 18 18 18 19 19 20 20 20 20 22 22 22 22 22 22 22 22 22 23 23 24 24 24 25 25
18 18 18 19 19 20 20 19 19 19 19 19 19 19 18 18 18 18 18 18 19 19 19 20 20 19 21 21 22 22 21 21 21 21 22 22 23 23 24 24 24 25 25
18 18 18 19 19 19 19 19 19 20 21 20 20 19 19 19 19 19 18 18 18 18 19 19 20 20 21 22 22 21 21 21 21 21 22 22 23 23 23 23 24 24 25
20 19 19 19 19 19 19 20 20 20 20 20 19 19 19 19 19 19 18 18 18 19 19 20 20 21 22 22 22 22 22 22 22 21 22 22 23 23 23 23 23 23 23
21 21 21 20 20 20 20 20 20 20 20 20 20 20 20 19 19 19 19 19 19 19 20 20 20 21 22 22 22 22 22 23 23 22 23 23 23 23 23 22 23 23 23
21 22 23 22 21 21 21 21 21 21 21 21 20 20 20 19 19 19 19 19 19 20 20 20 21 22 22 23 23 23 23 24 23 23 23 23 23 23 23 22 22 23 23
21 22 22 21 21 21 21 21 21 22 21 20 20 20 20 20 20 21 21 20 20 21 21 21 21 22 23 23 23 23 23 23 23 23 23 22 22 22 21 22 22 22 22
21 21 21 21 21 21 21 21 21 21 21 20 20 20 21 21 21 21 21 21 21 21 21 21 22 23 23 23 23 23 23 23 23 23 22 22 21 20 20 20 21 22 22
23 23 22 21 21 21 21 21 22 21 21 20 20 21 21 22 22 21 22 22 23 22 22 22 22 23 23 23 23 23 23 23 22 22 21 21 21 21 21 21 22 22 22
23 23 23 22 22 22 21 22 22 21 21 21 21 21 21 22 21 21 21 22 22 22 22 22 22 22 23 23 22 22 23 22 22 22 22 22 22 22 23 23 23 23 22
22 22 22 22 22 22 23 23 22 21 21 21 21 21 21 21 21 21 21 21 22 21 21 21 21 21 22 22 22 22 22 22 22 23 23 23 23 23 23 23 23 23 23
22 22 23 23 22 23 23 23 23 22 22 22 22 22 21 21 21 21 21 21 21 21 20 20 21 22 23 22 22 22 22 22 22 22 23 23 23 23 23 23 23 24 24
23 23 23 23 23 23 23 23 24 23 23 22 22 22 21 21 21 20 20 21 21 21 21 21 22 22 23 22 22 22 22 22 22 22 22 22 22 23 23 23 23 23 23
22 22 23 23 23 23 23 23 23 23 23 23 22 22 22 22 21 21 20 20 20 21 21 22 22 22 22 22 22 23 24 23 23 23 23 23 23 23 23 23 22 22 22
22 22 22 22 23 23 24 24 24 23 23 23 22 22 21 21 20 20 20 20 20 21 21 22 22 22 22 22 22 23 23 23 22 23 23 23 22 22 22 22 22 22 23
22 22 22 22 23 24 24 24 24 23 23 23 22 21 21 21 21 20 20 20 20 21 22 22 22 22 21 22 23 23 22 22 22 22 22 22 22 23 23 23 23 23 24
23 23 23 23 23 23 24 25 25 24 23 22 22 22 22 22 21 21 21 20 21 22 23 23 23 22 22 22 22 22 21 22 22 23 23 22 22 23 23 23 23 24 23
24 24 24 24 24 23 23 23 23 23 23 24 23 22 22 22 21 21 21 21 21 22 23 23 22 22 22 22 22 22 22 22 22 22 22 22 22 22 23 23 23 22 22
24 24 25 24 24 24 23 23 23 23 23 23 22 23 22 22 22 22 22 22 22 22 23 23 22 22 22 22 22 21 21 21 22 22 22 21 21 22 22 22 22 21 21
25 25 25 24 23 22 22 22 22 22 22 22 22 22 22 22 22 22 23 23 23 23 23 23 22 21 21 22 21 21 21 21 21 21 21 21 22 22 22 22 22 21 20
25 25 24 23 22 22 22 22 23 22 21 21 21 21 22 22 22 22 23 24 24 23 23 23 22 21 21 21 21 21 21 21 21 21 21 22 22 23 22 23 22 21 20
Wind_Direction
284 286 286 287 290 291 291 292 291 292 295 298 297 296 294 291 286 282 282 282 280 278 276 275 274 276 279 279 280 282 281 281 280 280 277 275 274 272 271 269 266 265 265
282 284 285 288 290 292 292 291 290 290 291 294 296 297 296 294 290 286 285 285 285 283 280 278 277 277 279 280 282 285 285 283 282 283 280 278 277 278 276 273 270 267 266
281 283 286 288 290 293 292 292 291 290 290 291 294 296 297 295 291 289 287 284 283 281 280 280 280 280 280 282 284 285 286 284 284 285 284 281 282 282 279 276 272 269 268
281 283 286 287 290 292 293 293 293 292 290 290 292 294 294 293 291 291 289 283 281 279 279 279 278 279 279 282 285 287 287 285 285 285 285 283 283 281 279 276 275 273 272
282 283 286 289 289 291 292 293 293 292 290 290 291 292 292 292 291 291 289 285 282 280 280 279 277 278 280 282 284 286 287 286 285 284 285 285 285 283 280 277 276 274 274
282 283 285 286 288 289 290 290 290 290 289 289 292 293 293 292 290 289 288 286 283 282 281 279 278 280 280 282 285 287 287 287 287 286 288 287 287 285 283 279 277 276 274
284 284 286 287 287 287 287 288 290 290 290 289 291 291 293 293 292 290 288 286 284 282 280 280 279 280 282 285 287 288 288 290 290 288 289 289 288 287 285 282 280 279 276
285 285 288 290 291 290 288 289 291 292 291 292 291 291 291 291 291 290 286 284 284 282 282 282 281 282 285 286 286 287 288 290 291 289 290 290 290 288 287 284 282 281 277
289 288 289 292 292 291 289 289 290 292 294 293 291 293 293 292 292 292 290 286 284 283 282 283 282 283 285 285 285 286 288 289 290 289 292 292 290 289 287 284 281 280 278
289 289 289 291 290 290 291 290 291 293 292 292 291 292 294 292 292 290 290 287 285 284 284 285 284 284 285 284 285 287 288 289 289 290 292 292 290 289 288 284 281 279 278
286 288 287 289 288 287 289 289 291 291 289 289 290 289 291 291 290 289 288 288 286 286 286 286 286 285 286 287 287 288 289 290 289 289 291 292 290 288 287 286 284 280 279
285 286 286 286 285 286 288 289 290 290 289 288 289 288 289 289 289 287 286 287 288 289 288 287 288 287 287 288 288 289 291 290 290 289 290 290 288 288 288 288 286 283 283
284 286 287 286 285 287 287 289 289 288 288 288 289 290 289 289 289 287 285 285 286 289 290 289 288 288 289 288 286 288 290 291 292 290 290 290 288 287 289 289 288 286 286
282 285 286 285 285 285 285 287 289 290 289 289 290 291 291 291 289 287 286 284 285 287 288 289 289 289 290 290 289 290 291 291 292 291 290 291 289 287 289 291 290 288 285
281 283 286 287 284 285 286 287 287 288 290 292 292 292 290 290 289 286 285 286 287 287 286 286 288 287 288 290 291 291 290 290 292 292 291 290 291 291 290 290 290 288 287
281 283 285 287 287 287 287 286 288 291 289 288 289 291 291 288 286 288 288 287 286 286 286 287 289 290 291 292 292 292 292 291 292 292 290 289 289 290 290 290 290 289 287
282 283 286 287 288 288 288 287 287 288 288 288 289 289 289 286 285 287 286 286 287 287 287 289 291 292 293 292 290 290 292 293 293 292 291 290 289 289 289 289 290 290 289
280 282 283 286 288 289 289 288 288 287 287 288 290 289 288 287 288 287 287 288 288 287 288 291 292 292 292 290 289 290 291 293 293 294 294 292 291 291 291 290 290 290 291
280 280 282 285 287 289 289 288 287 288 288 289 290 289 288 287 286 286 287 290 290 289 288 290 292 293 293 290 289 290 291 293 293 293 294 294 294 294 294 292 291 291 292
280 280 281 284 287 288 287 288 287 286 286 287 288 288 287 285 283 284 286 287 289 290 291 292 292 293 293 292 290 290 291 291 291 293 294 295 295 295 295 295 293 293 293
280 279 280 282 285 288 288 289 287 284 284 285 285 286 286 284 284 284 284 285 288 290 292 294 294 293 293 292 292 293 293 293 293 295 296 296 297 297 296 295 295 294 292
280 281 280 281 283 285 286 287 286 284 282 283 284 282 282 284 284 284 284 285 288 290 290 292 292 292 292 292 293 293 292 292 294 295 296 297 298 298 298 296 295 295 293
280 282 283 283 284 283 284 285 284 283 283 284 282 280 282 283 282 282 284 285 288 290 291 291 291 290 290 291 292 293 292 293 294 295 296 297 298 300 300 300 298 295 293
281 282 284 284 284 283 284 284 285 285 284 283 281 279 279 279 279 280 282 283 286 290 292 289 288 289 290 290 291 293 294 294 295 295 296 297 300 301 302 302 300 295 292
280 282 284 284 283 281 281 283 285 285 284 283 281 279 278 277 278 280 281 282 285 288 290 288 288 288 287 286 288 291 293 293 295 296 298 299 301 302 302 302 301 296 291
280 282 282 281 278 278 279 281 283 282 282 282 282 282 279 278 278 279 280 281 284 287 288 287 288 288 286 286 287 289 290 292 294 295 297 299 301 302 302 302 302 298 293
Height
5802 5801 5800 5799 5798 5797 5796 5795 5794 5792 5791 5790 5788 5787 5786 5784 5783 5783 5782 5782 5781 5780 5780 5780 5779 5779 5779 5778 5778 5778 5777 5777 5777 5778 5777 5777 5777 5777 5777 5777 5778 5778 5779
5797 5797 5796 5795 5794 5793 5792 5790 5789 5788 5787 5785 5784 5783 5782 5780 5779 5778 5777 5777 5776 5776 5775 5775 5775 5775 5774 5774 5774 5773 5772 5771 5771 5771 5771 5771 5770 5770 5770 5770 5770 5771 5772
5793 5793 5792 5791 5790 5789 5788 5786 5785 5783 5782 5781 5780 5779 5777 5776 5775 5773 5773 5772 5772 5771 5771 5771 5770 5770 5770 5769 5769 5768 5767 5766 5766 5766 5766 5765 5764 5764 5763 5763 5763 5764 5764
5789 5788 5788 5787 5786 5785 5783 5782 5780 5779 5778 5777 5776 5774 5773 5771 5770 5769 5767 5767 5766 5766 5766 5766 5766 5765 5765 5765 5764 5763 5762 5761 5760 5760 5760 5759 5758 5757 5757 5757 5756 5757 5757
5785 5784 5783 5782 5781 5780 5779 5777 5776 5775 5773 5772 5771 5770 5768 5766 5765 5764 5763 5762 5761 5761 5761 5760 5760 5760 5760 5759 5758 5758 5757 5756 5755 5754 5753 5753 5752 5751 5750 5749 5749 5749 5749
5780 5779 5779 5778 5776 5775 5774 5773 5771 5770 5768 5767 5766 5764 5762 5761 5759 5758 5757 5756 5756 5756 5755 5755 5755 5755 5754 5754 5753 5752 5751 5750 5749 5748 5747 5746 5745 5744 5743 5742 5741 5742 5742
5775 5774 5773 5772 5771 5770 5768 5767 5766 5765 5763 5762 5761 5759 5757 5755 5754 5753 5752 5751 5751 5750 5750 5750 5749 5749 5749 5748 5747 5746 5745 5744 5743 5742 5741 5739 5738 5737 5736 5734 5734 5734 5734
5770 5769 5768 5767 5766 5764 5763 5762 5761 5760 5758 5757 5755 5754 5752 5751 5749 5748 5746 5746 5745 5745 5744 5744 5743 5743 5742 5742 5741 5740 5739 5737 5736 5735 5734 5733 5731 5730 5728 5727 5726 5726 5725
5765 5764 5763 5762 5760 5759 5758 5757 5756 5754 5753 5751 5750 5748 5747 5746 5744 5743 5742 5741 5740 5740 5739 5738 5737 5737 5736 5735 5735 5734 5733 5731 5730 5729 5727 5726 5724 5723 5721 5720 5719 5718 5718
5760 5758 5757 5756 5755 5754 5753 5751 5750 5749 5747 5746 5744 5743 5742 5740 5739 5738 5736 5736 5735 5734 5733 5732 5731 5731 5730 5729 5728 5727 5726 5725 5723 5722 5721 5719 5717 5716 5714 5713 5712 5711 5711
5754 5752 5751 5750 5749 5748 5747 5746 5744 5743 5741 5740 5739 5737 5736 5735 5733 5732 5731 5730 5729 5728 5728 5727 5726 5725 5724 5723 5722 5720 5719 5717 5716 5715 5713 5712 5710 5709 5707 5706 5704 5703 5703
5747 5746 5745 5744 5743 5742 5741 5740 5738 5737 5735 5734 5733 5731 5730 5729 5727 5726 5725 5725 5724 5723 5722 5721 5719 5718 5717 5716 5715 5713 5712 5710 5709 5707 5706 5705 5703 5702 5701 5699 5697 5696 5695
5742 5740 5739 5738 5737 5736 5735 5733 5732 5730 5729 5728 5727 5725 5724 5723 5721 5720 5719 5719 5718 5717 5715 5714 5713 5712 5710 5709 5708 5707 5705 5703 5702 5700 5699 5698 5696 5695 5694 5693 5691 5690 5688
5735 5734 5733 5732 5731 5730 5728 5727 5726 5724 5723 5722 5720 5719 5717 5716 5715 5714 5713 5712 5711 5710 5709 5708 5707 5705 5704 5702 5701 5700 5698 5696 5695 5693 5692 5691 5690 5689 5687 5686 5684 5683 5682
5728 5727 5726 5725 5724 5723 5722 5720 5719 5718 5717 5715 5714 5712 5711 5710 5709 5708 5707 5706 5704 5703 5702 5701 5700 5699 5698 5696 5695 5693 5691 5690 5689 5687 5686 5685 5683 5682 5681 5679 5677 5676 5674
5722 5720 5719 5718 5717 5716 5715 5714 5712 5711 5710 5709 5707 5706 5705 5703 5702 5701 5700 5699 5698 5697 5696 5695 5694 5693 5691 5690 5688 5687 5685 5684 5682 5681 5679 5678 5676 5675 5673 5672 5670 5668 5667
5715 5714 5712 5711 5710 5708 5707 5706 5705 5705 5703 5702 5701 5700 5698 5697 5696 5695 5694 5693 5692 5691 5690 5689 5688 5686 5685 5684 5682 5681 5679 5677 5676 5674 5672 5671 5669 5668 5666 5664 5663 5661 5659
5709 5707 5706 5705 5703 5702 5700 5699 5697 5696 5696 5695 5694 5693 5692 5691 5690 5689 5688 5687 5686 5685 5684 5683 5682 5680 5679 5677 5676 5675 5673 5672 5670 5668 5666 5664 5663 5661 5659 5657 5655 5653 5651
5702 5701 5699 5698 5697 5695 5694 5692 5690 5689 5688 5688 5687 5687 5685 5684 5684 5683 5682 5681 5680 5679 5678 5677 5675 5674 5672 5671 5669 5668 5667 5665 5664 5662 5660 5658 5656 5654 5652 5650 5648 5646 5644
5695 5694 5693 5691 5690 5689 5687 5685 5684 5682 5682 5681 5681 5680 5679 5678 5677 5676 5675 5674 5673 5672 5671 5670 5669 5668 5666 5665 5663 5662 5660 5659 5657 5655 5653 5651 5649 5647 5645 5643 5641 5639 5637
5688 5687 5686 5685 5684 5682 5681 5679 5677 5676 5675 5674 5674 5673 5672 5672 5671 5670 5669 5668 5667 5667 5665 5664 5663 5661 5660 5659 5657 5655 5654 5652 5651 5649 5647 5645 5643 5640 5638 5636 5634 5632 5630
5681 5680 5679 5677 5676 5675 5674 5673 5671 5670 5669 5668 5667 5666 5666 5665 5664 5664 5663 5662 5661 5660 5658 5657 5656 5655 5653 5652 5651 5649 5648 5646 5644 5642 5641 5638 5636 5634 5631 5629 5627 5625 5622
5674 5673 5672 5670 5669 5668 5667 5666 5665 5663 5662 5661 5660 5659 5659 5658 5658 5657 5656 5656 5654 5653 5652 5650 5649 5648 5646 5645 5644 5643 5641 5639 5638 5636 5634 5632 5629 5627 5625 5622 5620 5618 5615
5667 5666 5664 5663 5662 5661 5660 5658 5657 5656 5655 5654 5653 5652 5652 5651 5651 5650 5650 5649 5647 5646 5645 5643 5642 5641 5640 5639 5637 5636 5634 5633 5631 5629 5627 5625 5623 5621 5618 5616 5613 5611 5609
5659 5658 5656 5656 5654 5653 5652 5651 5650 5649 5648 5647 5646 5645 5645 5644 5644 5643 5642 5642 5641 5639 5638 5636 5635 5634 5633 5632 5631 5629 5628 5626 5624 5623 5621 5619 5617 5614 5612 5609 5607 5604 5603
5651 5650 5649 5648 5647 5646 5645 5644 5643 5642 5641 5640 5639 5638 5637 5637 5636 5635 5635 5634 5633 5632 5631 5630 5628 5627 5626 5625 5624 5623 5622 5620 5618 5617 5615 5613 5611 5608 5605 5603 5600 5598 5596